FW4335 Weather Reports


Display with metric or nautical units.
time (UTC)temp
F
wind
direction
speed
MPH
gust
MPH
rain 1hr
in
rain 24hr
in
rain mn
in
humidity
%
barometer
mb
20260509151607 56 25 1.0 3.0 0.00 0.00 0.00 78 1024.4
20260509150033 54 120 0.0 1.0 0.00 0.00 0.00 83 1024.4
20260509144543 52 181 0.0 0.0 0.00 0.00 0.00 89 1024.5
20260509143029 49 225 0.0 0.0 0.00 0.00 0.00 94 1024.5
20260509141550 47 225 0.0 0.0 0.00 0.00 0.00 95 1024.4
20260509140036 43 225 0.0 2.0 0.00 0.00 0.00 95 1024.2
20260509134537 40 225 0.0 2.0 0.00 0.00 0.00 95 1024.1
20260509133033 39 179 2.0 3.0 0.00 0.00 0.00 94 1024.1
20260509131607 39 185 0.0 2.0 0.00 0.00 0.00 94 1024.0
20260509130032 40 213 2.0 3.0 0.00 0.00 0.00 94 1023.7
20260509124541 40 202 0.0 1.0 0.00 0.00 0.00 94 1023.7
20260509123031 41 189 0.0 0.0 0.00 0.00 0.00 93 1023.6
20260509121536 41 157 0.0 0.0 0.00 0.00 0.00 93 1023.6
20260509120035 41 212 0.0 3.0 0.00 0.00 0.00 93 1023.6
20260509114531 42 220 0.0 3.0 0.00 0.00 0.00 92 1023.5
20260509113035 42 247 0.0 2.0 0.00 0.00 0.00 92 1023.5
20260509111537 42 214 1.0 4.0 0.00 0.00 0.00 91 1023.5
20260509110033 42 182 0.0 3.0 0.00 0.00 0.00 90 1023.5
20260509104607 43 168 0.0 4.0 0.00 0.00 0.00 90 1023.5
20260509103105 43 223 0.0 3.0 0.00 0.00 0.00 90 1023.6
20260509101531 44 189 0.0 3.0 0.00 0.00 0.00 88 1023.6
20260509094606 45 138 0.0 3.0 0.00 0.00 0.00 87 1023.6
20260509093030 46 225 2.0 4.0 0.00 0.00 0.00 85 1023.7
20260509091535 47 309 0.0 2.0 0.00 0.00 0.00 84 1023.8
20260509090029 48 290 0.0 0.0 0.00 0.00 0.00 84 1023.9
20260509084533 48 224 0.0 3.0 0.00 0.00 0.00 83 1024.1
20260509083035 48 184 0.0 2.0 0.00 0.00 0.00 82 1024.3
20260509081635 49 157 0.0 0.0 0.00 0.00 0.00 79 1024.3
20260509074533 52 219 0.0 2.0 0.00 0.00 0.00 75 1024.6
20260509073032 52 277 0.0 2.0 0.00 0.00 0.00 75 1024.6
20260509071536 52 284 0.0 3.0 0.00 0.00 0.00 75 1024.6
20260509070032 52 287 0.0 2.0 0.00 0.00 0.00 74 1024.7
20260509064610 53 268 0.0 3.0 0.00 0.00 0.00 74 1024.9
20260509063030 53 285 0.0 2.0 0.00 0.00 0.00 73 1024.9
20260509061534 55 267 0.0 0.0 0.00 0.00 0.00 69 1024.9
20260509060032 56 199 0.0 1.0 0.00 0.00 0.00 67 1024.9
20260509051529 52 203 2.0 4.0 0.00 0.00 0.00 73 1024.6
20260509050031 52 167 0.0 2.0 0.00 0.00 0.00 73 1024.6
20260509044532 52 219 0.0 4.0 0.00 0.00 0.00 72 1024.5
20260509043031 53 247 0.0 0.0 0.00 0.00 0.00 69 1024.4
20260509041531 55 247 0.0 2.0 0.00 0.00 0.00 65 1024.1
20260509040142 57 247 0.0 1.0 0.00 0.00 0.00 60 1024.0
20260509033034 59 244 1.0 7.0 0.00 0.00 0.00 57 1023.5
20260509031536 60 243 3.0 11.0 0.00 0.00 0.00 56 1023.3
20260509030030 61 222 3.0 11.0 0.00 0.00 0.00 54 1023.0
20260509023032 63 234 7.0 14.0 0.00 0.00 0.00 51 1022.9
20260509020036 64 229 8.0 15.0 0.00 0.00 0.00 48 1022.6
20260509014532 65 239 7.0 18.0 0.00 0.00 0.00 46 1022.3
20260509013031 67 250 7.0 15.0 0.00 0.00 0.00 45 1022.3
20260509011536 67 248 5.0 15.0 0.00 0.00 0.00 44 1022.2
20260509010034 68 276 4.0 14.0 0.00 0.00 0.00 42 1022.2
20260509004536 69 257 4.0 12.0 0.00 0.00 0.00 41 1022.1
20260509003107 69 271 4.0 14.0 0.00 0.00 0.00 42 1021.9
20260509001533 69 308 2.0 7.0 0.00 0.00 0.00 42 1021.6
20260508234605 69 294 2.0 10.0 0.00 0.00 0.00 43 1021.7
20260508233033 68 299 2.0 9.0 0.00 0.00 0.00 43 1021.7
20260508231532 68 298 2.0 7.0 0.00 0.00 0.00 44 1021.7
20260508224608 68 300 2.0 9.0 0.00 0.00 0.00 46 1021.7
20260508223034 67 308 2.0 8.0 0.00 0.00 0.00 48 1021.7
20260508221652 68 309 2.0 8.0 0.00 0.00 0.00 48 1021.8
20260508220029 68 316 2.0 6.0 0.00 0.00 0.00 49 1021.7
20260508214533 67 315 2.0 7.0 0.00 0.00 0.00 51 1021.7
20260508213037 67 314 2.0 10.0 0.00 0.00 0.00 50 1021.8
20260508211542 65 319 2.0 10.0 0.00 0.00 0.00 51 1021.9
20260508210036 66 313 3.0 9.0 0.00 0.00 0.00 51 1021.9
20260508203032 66 319 2.0 7.0 0.00 0.00 0.00 50 1021.8
20260508200034 67 315 2.0 6.0 0.00 0.00 0.00 50 1021.7
20260508194534 67 306 2.0 8.0 0.00 0.00 0.00 51 1021.7
20260508190032 64 320 1.0 6.0 0.00 0.00 0.00 54 1022.0
20260508184535 63 310 1.0 8.0 0.00 0.00 0.00 55 1022.2
20260508183032 59 2 1.0 6.0 0.00 0.00 0.00 59 1022.2
20260508181641 56 44 0.0 3.0 0.00 0.00 0.00 62 1022.2
20260508180034 55 8 0.0 2.0 0.00 0.00 0.00 63 1022.1
20260508174535 55 312 0.0 4.0 0.00 0.00 0.00 64 1022.1
20260508173029 55 309 0.0 4.0 0.00 0.00 0.00 66 1021.8
20260508171530 55 336 1.0 6.0 0.00 0.00 0.00 66 1021.7
20260508170044 55 320 1.0 5.0 0.00 0.00 0.00 66 1021.6
20260508164541 56 344 2.0 6.0 0.00 0.00 0.00 66 1021.6
20260508160035 58 303 1.0 5.0 0.00 0.00 0.00 65 1021.6
20260508154532 58 311 1.0 7.0 0.00 0.00 0.00 67 1021.5
20260508153035 58 292 2.0 10.0 0.00 0.00 0.00 70 1021.3